Temperature
17 17 17 17 17 17 17 17 17 17 17 18 18 18 18 18 18 18 18 18 18 18 18 18 18 18 18 18 18 18 18 18 18 18 18 18 18 18 18 18 18 18 18
17 17 17 17 17 17 17 17 17 17 17 17 17 17 17 18 18 18 18 18 18 18 18 18 18 18 18 18 18 18 18 18 18 18 18 18 18 18 18 18 18 18 18
17 17 17 17 17 17 17 17 17 17 17 17 17 17 17 17 18 18 18 18 18 17 18 18 18 18 18 18 18 18 18 18 18 18 18 18 18 18 18 18 18 18 18
17 17 17 17 17 17 17 17 17 17 17 17 17 17 17 17 17 17 17 17 17 17 17 17 18 18 18 17 17 18 17 18 18 18 17 17 17 17 17 17 17 17 17
17 17 17 17 17 17 17 17 17 17 17 17 17 17 17 17 17 17 17 17 17 17 17 17 17 17 17 17 17 17 17 17 17 17 17 17 17 17 17 17 17 17 17
17 17 17 17 17 17 17 17 17 17 17 17 17 17 17 17 17 17 17 17 17 17 17 17 17 17 17 17 17 17 17 17 17 17 17 17 17 17 17 17 17 17 17
17 17 17 17 17 17 17 17 17 17 17 17 16 16 17 17 17 17 17 17 17 17 17 17 17 17 17 17 17 17 17 17 17 17 17 17 17 17 17 17 17 17 17
17 17 17 17 17 17 17 16 17 17 16 16 16 16 16 16 17 17 17 16 16 16 16 16 16 17 17 17 17 17 17 17 17 17 17 16 17 17 17 17 17 17 17
17 17 17 17 16 16 16 16 16 16 16 16 16 16 16 16 16 16 16 16 16 16 16 16 16 16 16 16 16 17 17 17 17 16 16 16 16 16 16 16 17 16 17
17 17 17 16 16 16 16 16 16 16 16 16 16 16 16 16 16 16 16 16 16 16 16 16 16 16 16 16 16 16 16 16 16 16 16 16 16 16 16 16 16 16 16
17 16 16 16 16 16 16 16 16 16 16 16 16 16 16 16 16 16 16 16 16 16 16 16 16 16 16 16 16 16 16 16 16 16 16 16 16 16 16 16 16 16 16
17 17 16 16 16 16 16 16 16 16 16 16 16 16 16 16 16 15 15 15 15 15 15 15 15 15 15 15 15 15 16 16 16 15 16 16 16 16 16 16 16 16 16
17 17 16 16 16 16 16 16 16 16 16 16 16 16 16 16 15 15 15 15 15 15 15 15 15 15 15 15 15 15 15 15 15 15 15 15 15 15 15 15 15 15 15
17 17 16 16 16 16 16 16 16 16 16 16 15 15 16 16 15 15 15 15 15 15 15 15 15 15 15 15 15 15 15 15 15 15 15 15 15 15 15 15 15 15 15
17 17 17 16 16 16 16 16 16 16 16 16 15 15 15 15 15 15 15 15 15 15 15 15 15 15 15 15 15 15 15 15 15 15 15 15 15 15 15 15 15 15 15
17 17 16 16 16 16 16 16 16 15 15 15 15 15 15 15 15 15 15 15 15 15 15 15 15 15 15 14 14 14 15 15 15 15 15 15 15 15 15 14 14 14 15
17 16 16 16 16 16 16 16 16 15 15 15 15 15 15 15 15 15 15 15 15 15 15 14 15 15 15 14 14 14 14 14 14 14 14 14 14 14 14 14 14 14 14
17 16 16 16 16 16 16 16 16 15 15 15 15 15 15 15 15 15 15 15 15 14 14 14 14 14 14 14 14 14 14 14 14 14 14 14 14 14 14 14 14 14 14
17 16 16 16 16 16 16 16 15 15 15 15 15 15 15 15 15 15 15 14 14 14 14 14 14 14 14 14 14 14 14 14 14 14 14 14 14 14 14 14 14 14 14
16 16 16 16 16 16 16 15 15 15 15 15 15 15 15 15 15 15 14 14 14 14 14 14 14 14 14 14 14 14 14 14 14 14 14 14 14 14 14 14 14 14 14
17 16 16 16 16 16 16 16 15 15 15 15 15 15 15 14 15 14 14 14 14 14 14 14 14 14 14 14 14 14 14 14 13 13 13 14 14 14 14 14 14 14 13
17 16 16 16 16 16 16 15 15 15 15 15 15 14 14 14 14 14 14 14 14 14 14 14 14 14 13 13 13 13 13 13 13 13 13 13 13 13 13 13 13 13 13
16 16 16 16 16 16 15 15 15 15 15 15 15 14 14 14 14 14 14 14 14 14 14 14 14 14 14 13 13 13 13 13 13 13 13 13 13 13 13 13 13 13 13
16 16 16 16 16 16 15 15 15 15 15 15 14 14 14 14 14 14 14 14 14 14 13 13 13 13 13 13 13 13 13 13 13 13 13 13 13 13 13 13 13 13 13
16 16 16 16 16 15 15 15 15 15 15 14 14 14 14 14 14 14 14 13 13 13 13 13 13 13 13 13 13 13 13 13 13 13 13 13 13 13 13 13 13 13 13
16 16 16 16 16 15 15 15 15 15 15 14 14 14 14 14 14 14 13 13 13 13 13 13 13 13 13 13 13 13 13 13 13 13 13 13 12 13 13 13 13 13 13
Wind_Speed
3 4 4 4 6 6 7 8 8 9 9 9 10 10 10 10 10 10 10 10 10 11 10 10 10 10 10 9 9 9 10 10 9 9 8 8 9 9 8 8 7 6 8
2 3 2 4 5 6 7 7 8 9 9 9 9 10 9 9 9 10 10 10 11 11 11 11 11 11 10 10 10 10 9 9 9 9 8 8 8 8 9 8 8 7 9
0 1 2 4 5 6 7 7 8 8 9 9 9 9 9 9 9 9 9 10 11 11 12 12 12 11 11 10 10 10 9 9 9 9 8 6 7 8 8 8 8 9 9
1 1 2 4 5 6 7 7 8 8 8 9 9 9 9 9 8 8 9 10 10 11 11 12 12 11 11 11 10 10 10 9 9 8 7 6 6 8 9 8 9 10 10
2 2 2 4 5 6 7 8 8 8 8 9 9 9 9 9 8 8 9 10 10 10 11 11 11 11 11 11 11 11 10 10 9 8 7 7 6 8 9 9 9 9 9
2 2 2 4 5 6 7 8 8 8 8 9 9 9 9 10 11 11 11 11 10 11 11 11 11 11 12 12 12 11 11 10 9 8 7 7 6 8 9 9 9 9 9
1 2 2 4 6 6 7 7 8 9 9 9 10 10 10 11 13 13 12 11 11 11 11 11 11 11 12 12 12 12 12 11 10 8 7 7 8 9 9 9 9 9 9
2 2 3 4 6 6 7 7 8 9 9 9 10 10 11 12 12 12 11 11 11 11 11 11 12 12 12 12 12 12 12 11 9 8 8 7 9 10 10 10 10 10 9
3 3 4 4 5 6 6 7 8 9 9 10 10 11 11 12 12 11 11 11 11 11 11 11 12 12 12 12 12 12 12 12 10 7 7 7 9 9 10 11 10 10 10
3 3 3 4 5 5 6 7 8 9 9 10 10 10 11 11 11 11 10 10 10 10 10 11 12 12 12 12 12 12 12 10 9 8 7 7 10 10 10 10 10 10 10
2 3 3 3 4 4 5 6 7 8 8 9 9 10 10 9 8 8 10 11 10 11 11 11 13 13 12 12 12 12 11 9 8 7 6 9 10 10 11 10 9 9 9
1 1 2 2 3 4 4 5 6 6 7 7 7 8 8 8 8 8 10 11 11 11 11 12 12 12 10 9 10 10 9 9 8 6 7 9 10 10 10 9 9 9 9
1 1 1 2 2 3 3 4 4 5 5 6 7 7 7 7 7 8 7 8 9 10 9 9 9 9 8 7 7 8 8 8 7 6 7 9 9 10 9 9 9 9 9
2 1 1 2 2 2 3 3 4 3 4 4 5 6 6 5 5 5 5 6 7 6 7 7 6 7 8 8 8 7 7 7 7 7 7 9 9 9 9 9 9 9 9
2 1 1 2 2 2 3 2 3 3 3 4 5 5 6 4 4 4 5 6 6 6 6 6 6 6 6 7 7 7 6 7 7 7 7 9 9 9 9 9 9 9 9
2 1 1 2 2 3 2 2 2 3 4 4 5 5 6 5 4 4 5 5 5 5 6 6 6 5 5 5 6 6 6 6 7 8 8 8 10 9 9 8 9 9 9
2 1 1 2 3 3 2 2 2 3 4 4 4 5 6 6 5 5 4 4 4 5 6 6 6 6 5 5 5 6 6 6 7 7 8 8 8 10 9 8 8 8 8
2 2 1 3 4 3 2 2 3 3 4 4 4 5 5 5 6 5 4 3 4 5 5 4 4 5 5 4 4 4 5 5 6 6 6 7 7 7 8 8 7 7 6
3 3 3 3 4 3 3 3 3 4 4 4 4 4 4 5 5 5 3 3 4 4 4 3 4 3 4 4 4 4 4 4 4 5 6 6 6 6 7 8 8 7 6
3 3 3 4 3 3 3 3 3 4 3 4 3 3 4 4 5 4 3 3 4 4 3 3 4 4 3 3 4 5 4 3 4 4 4 5 5 5 6 6 6 6 6
3 3 3 4 3 3 2 2 2 2 2 2 2 4 4 4 4 4 3 3 3 3 2 3 3 3 3 2 3 4 4 4 4 3 4 4 4 5 6 5 5 5 5
4 3 3 3 3 3 2 2 2 2 1 1 2 3 4 4 4 3 3 2 2 2 3 2 2 2 1 2 2 2 2 4 3 4 3 3 4 4 4 4 4 5 5
3 4 4 4 4 3 3 3 3 3 3 3 3 2 2 3 3 3 3 3 2 2 2 2 2 2 2 1 1 3 2 1 2 3 3 3 3 2 3 3 4 4 4
4 3 3 3 3 3 4 4 4 3 2 1 0 0 1 2 3 3 3 2 2 1 1 1 2 1 2 1 1 1 1 3 2 1 2 2 3 2 2 3 3 4 4
3 3 3 3 3 3 3 5 5 3 2 1 1 1 1 2 2 2 2 2 1 1 1 1 1 1 1 2 1 1 1 1 1 2 1 2 3 2 2 2 2 3 3
3 3 3 4 2 2 3 3 4 4 3 2 1 1 0 1 1 1 1 1 1 1 1 1 1 1 1 1 1 2 2 2 2 2 2 1 2 2 2 2 1 2 2
Wind_Direction
294 298 341 31 40 47 53 56 58 62 64 67 69 70 71 72 75 77 78 79 82 84 88 93 95 98 98 98 97 94 95 99 104 107 106 109 113 117 115 110 109 113 118
255 301 15 41 51 55 56 59 61 61 63 65 69 70 70 71 72 75 76 79 82 84 87 88 90 90 90 91 93 94 96 98 99 98 98 102 108 113 114 112 111 111 111
330 347 36 53 59 62 61 66 65 64 63 65 68 68 69 72 74 76 76 80 82 84 87 88 86 86 87 87 88 91 96 97 96 93 88 80 96 108 110 108 110 110 107
81 47 59 65 60 62 65 69 66 66 64 64 66 66 63 68 73 80 84 84 84 85 86 86 84 85 85 83 83 87 92 92 93 90 75 73 86 105 106 103 104 105 105
61 45 47 70 62 64 69 71 69 66 66 67 67 65 60 59 68 86 91 88 86 85 86 86 84 83 82 82 80 83 87 88 88 81 74 75 82 100 103 101 101 100 103
57 41 43 69 68 68 71 71 71 68 69 69 67 64 62 61 69 84 89 88 85 86 87 88 85 82 81 80 78 81 85 85 81 75 73 76 83 102 103 103 101 100 102
65 41 49 71 72 71 72 70 71 68 69 71 70 66 63 65 70 78 83 84 82 82 84 86 83 83 81 79 78 80 84 83 79 76 74 77 88 101 101 98 96 97 98
79 48 44 54 68 70 71 70 72 69 67 69 69 67 64 66 70 73 78 81 78 78 79 80 79 81 79 78 79 79 80 78 80 80 76 77 92 99 102 99 96 94 94
67 55 44 42 50 58 61 63 68 68 64 65 66 67 65 63 67 70 75 77 75 77 80 81 79 81 81 80 78 76 75 74 70 74 80 79 95 100 101 98 94 91 89
52 47 36 37 39 42 47 53 61 63 62 62 63 65 64 60 58 64 68 72 72 73 77 78 77 78 79 78 77 75 72 67 60 63 71 86 94 98 100 98 96 93 90
49 29 29 33 35 36 42 48 52 56 54 57 59 63 60 51 48 56 66 71 73 73 74 74 73 71 71 70 72 71 64 59 57 56 70 87 92 94 96 95 97 97 96
46 14 39 35 33 41 48 46 43 46 48 53 56 56 57 53 50 54 55 63 67 69 70 71 70 66 61 59 61 62 56 54 54 51 70 83 87 91 92 93 96 97 97
163 46 51 46 44 52 51 54 47 48 52 56 59 61 62 56 52 50 51 49 52 57 62 64 62 60 61 61 59 58 55 53 50 49 63 78 81 87 88 89 91 92 93
100 75 64 74 64 61 63 60 55 53 54 57 56 65 71 62 55 54 57 52 54 62 66 66 69 66 65 64 66 64 59 55 50 48 57 73 77 83 86 88 88 85 85
139 134 83 92 87 75 69 62 64 57 60 64 63 65 77 76 63 61 59 61 60 64 66 65 67 66 66 62 65 67 61 55 54 50 50 61 71 80 84 82 88 87 83
166 146 100 101 96 90 80 71 65 65 65 67 68 69 81 85 77 74 64 61 60 64 69 73 69 69 69 68 62 61 58 54 54 54 49 48 56 68 74 75 79 85 83
166 135 121 121 95 94 87 78 76 71 71 69 71 75 80 87 89 85 73 63 64 72 73 73 66 64 66 64 55 53 56 53 53 51 48 45 44 49 55 64 69 78 78
140 120 108 113 106 102 94 84 79 72 74 71 76 78 78 89 98 94 85 70 75 78 74 72 64 64 59 56 51 43 44 45 44 45 47 46 41 38 42 49 56 65 72
156 139 114 104 110 112 101 88 82 74 68 65 71 72 76 88 97 96 87 80 85 80 69 77 64 70 69 61 57 46 37 37 34 42 43 42 42 42 39 36 36 36 51
146 134 122 108 104 104 92 76 68 60 49 53 61 65 74 88 96 98 90 86 91 82 66 68 73 61 65 62 63 50 34 30 36 35 31 32 34 40 42 40 28 19 31
137 135 131 121 116 111 96 96 91 72 39 30 40 58 74 87 95 99 87 85 92 99 107 99 87 74 58 55 60 36 20 26 35 29 26 30 26 31 37 34 29 23 20
162 158 146 140 138 137 130 126 119 119 89 50 29 48 60 77 90 103 94 83 91 99 99 105 105 96 74 70 89 75 23 4 7 15 17 28 19 26 29 24 29 26 20
169 171 168 164 154 145 124 99 81 66 52 40 28 23 26 67 88 97 107 107 99 110 138 145 138 132 143 80 96 120 122 223 326 345 4 15 11 19 14 21 23 20 15
195 174 155 153 149 145 139 137 133 130 131 202 227 359 23 56 76 93 107 111 115 110 126 166 147 144 139 149 78 80 147 162 154 334 335 350 359 6 5 13 15 12 14
180 163 151 139 139 144 152 157 147 140 151 126 88 72 38 25 44 64 100 116 117 127 150 119 113 134 143 155 160 135 100 82 120 154 276 328 345 342 347 353 10 8 11
165 155 151 151 159 157 156 158 161 160 154 134 120 111 23 3 6 22 73 134 151 136 149 151 137 137 156 152 156 154 157 159 175 163 192 266 301 310 326 336 348 1 8
Height
1509 1508 1507 1506 1505 1504 1503 1503 1502 1501 1501 1500 1500 1499 1499 1499 1498 1498 1497 1497 1497 1497 1497 1498 1499 1501 1502 1503 1504 1505 1506 1507 1508 1509 1510 1512 1513 1514 1515 1516 1517 1517 1518
1509 1509 1508 1507 1506 1506 1505 1504 1503 1503 1502 1502 1501 1501 1500 1500 1499 1499 1499 1499 1499 1499 1499 1500 1501 1502 1503 1504 1505 1506 1507 1507 1509 1510 1511 1512 1513 1515 1516 1516 1517 1518 1519
1510 1510 1509 1508 1508 1507 1506 1506 1505 1504 1504 1503 1503 1502 1501 1500 1500 1500 1500 1500 1500 1500 1501 1502 1502 1504 1505 1505 1506 1507 1507 1508 1509 1511 1512 1513 1514 1515 1516 1517 1518 1519 1520
1511 1511 1510 1510 1509 1508 1508 1507 1506 1506 1505 1505 1504 1503 1502 1501 1499 1499 1500 1501 1502 1502 1503 1504 1504 1505 1506 1506 1507 1508 1508 1509 1510 1511 1512 1514 1515 1516 1517 1518 1519 1520 1521
1512 1512 1512 1511 1510 1510 1509 1508 1508 1507 1507 1506 1505 1504 1503 1500 1497 1497 1500 1502 1503 1504 1505 1506 1506 1507 1507 1508 1508 1509 1509 1510 1511 1512 1513 1514 1516 1517 1518 1519 1520 1521 1522
1514 1513 1513 1513 1512 1512 1511 1510 1510 1509 1508 1508 1507 1506 1504 1501 1496 1496 1500 1503 1505 1506 1507 1508 1508 1509 1509 1509 1510 1510 1510 1510 1511 1512 1513 1515 1516 1518 1519 1520 1521 1522 1523
1515 1515 1514 1514 1514 1513 1513 1512 1512 1511 1510 1510 1509 1508 1507 1504 1502 1501 1503 1505 1507 1508 1509 1509 1510 1510 1510 1511 1511 1511 1511 1511 1511 1512 1514 1516 1517 1519 1520 1521 1522 1523 1524
1517 1516 1516 1516 1515 1515 1515 1514 1514 1513 1512 1512 1511 1510 1509 1508 1507 1506 1507 1508 1509 1510 1510 1511 1511 1512 1512 1513 1513 1513 1512 1512 1512 1513 1515 1517 1518 1520 1521 1522 1523 1524 1525
1518 1518 1518 1517 1517 1517 1516 1516 1516 1515 1515 1514 1514 1513 1512 1511 1511 1510 1511 1511 1511 1512 1512 1513 1513 1513 1514 1514 1514 1514 1514 1514 1514 1515 1517 1518 1520 1521 1522 1523 1524 1525 1525
1519 1519 1519 1519 1519 1519 1518 1518 1518 1517 1517 1516 1516 1515 1514 1514 1513 1513 1513 1513 1513 1514 1514 1514 1515 1515 1515 1515 1516 1516 1516 1517 1517 1517 1519 1520 1521 1522 1523 1524 1525 1526 1526
1521 1521 1521 1521 1520 1520 1520 1520 1519 1519 1519 1518 1518 1517 1517 1516 1515 1515 1516 1516 1516 1515 1516 1516 1516 1516 1517 1517 1517 1518 1518 1519 1519 1520 1521 1522 1523 1523 1524 1525 1526 1527 1527
1521 1522 1522 1522 1522 1521 1521 1521 1521 1521 1520 1520 1519 1519 1519 1518 1518 1517 1517 1517 1517 1517 1517 1517 1518 1518 1518 1518 1519 1519 1520 1521 1521 1521 1523 1524 1524 1525 1525 1526 1527 1527 1528
1523 1523 1523 1523 1523 1523 1523 1523 1523 1522 1522 1522 1522 1521 1521 1520 1520 1519 1519 1519 1519 1519 1518 1518 1519 1519 1519 1520 1520 1521 1522 1522 1523 1524 1525 1526 1526 1527 1527 1527 1528 1529 1529
1524 1524 1525 1525 1525 1525 1525 1525 1524 1524 1524 1523 1523 1523 1523 1522 1522 1522 1521 1521 1521 1521 1521 1521 1521 1521 1521 1521 1522 1523 1523 1524 1525 1526 1527 1528 1528 1528 1529 1529 1529 1530 1530
1525 1525 1526 1526 1526 1526 1526 1526 1526 1526 1526 1526 1525 1525 1525 1525 1524 1524 1524 1523 1523 1523 1522 1522 1522 1522 1522 1523 1524 1525 1525 1526 1527 1528 1528 1529 1530 1530 1530 1530 1531 1531 1531
1525 1526 1526 1527 1527 1527 1527 1527 1527 1527 1527 1527 1527 1527 1527 1527 1526 1526 1525 1525 1525 1524 1524 1524 1524 1524 1524 1525 1525 1526 1527 1528 1528 1529 1530 1530 1531 1531 1531 1532 1532 1532 1532
1525 1526 1526 1527 1528 1528 1528 1528 1528 1529 1529 1528 1528 1528 1528 1528 1528 1528 1527 1527 1527 1526 1526 1526 1525 1525 1526 1527 1527 1528 1528 1529 1530 1530 1531 1531 1532 1532 1532 1532 1532 1532 1533
1526 1526 1527 1527 1528 1528 1529 1529 1529 1530 1530 1530 1530 1530 1530 1530 1530 1529 1529 1528 1528 1528 1528 1527 1527 1527 1527 1528 1528 1528 1529 1530 1531 1532 1532 1533 1533 1533 1534 1534 1533 1534 1534
1526 1526 1527 1528 1528 1529 1530 1530 1530 1530 1531 1531 1531 1531 1531 1531 1531 1531 1530 1530 1530 1530 1529 1529 1529 1529 1529 1529 1529 1530 1530 1532 1532 1533 1533 1533 1534 1534 1535 1535 1535 1535 1535
1526 1527 1527 1528 1529 1529 1530 1530 1531 1531 1531 1531 1532 1532 1532 1532 1532 1532 1532 1531 1531 1531 1531 1531 1530 1530 1530 1531 1531 1531 1532 1533 1533 1533 1534 1534 1535 1535 1535 1536 1536 1535 1535
1526 1527 1527 1528 1529 1529 1530 1530 1530 1531 1531 1532 1532 1532 1533 1533 1533 1532 1532 1532 1532 1532 1532 1532 1532 1532 1532 1532 1532 1532 1533 1533 1534 1534 1535 1535 1535 1535 1536 1536 1536 1536 1536
1525 1526 1527 1528 1528 1529 1530 1530 1531 1531 1532 1532 1533 1533 1533 1533 1533 1533 1533 1533 1533 1532 1532 1532 1532 1532 1533 1533 1534 1533 1534 1535 1534 1535 1535 1535 1535 1535 1536 1536 1536 1536 1536
1524 1525 1526 1527 1528 1529 1530 1530 1531 1531 1532 1532 1532 1533 1533 1533 1533 1533 1533 1533 1533 1533 1533 1533 1533 1533 1533 1534 1534 1535 1534 1535 1535 1535 1535 1535 1535 1535 1535 1536 1536 1536 1535
1523 1524 1526 1527 1528 1529 1529 1530 1530 1530 1531 1531 1532 1533 1533 1533 1533 1533 1533 1533 1533 1533 1533 1533 1533 1533 1533 1534 1534 1534 1535 1535 1535 1535 1535 1535 1535 1535 1535 1535 1535 1535 1535
1522 1524 1525 1526 1527 1528 1529 1529 1529 1530 1531 1531 1532 1533 1533 1533 1533 1533 1533 1533 1533 1533 1533 1533 1533 1533 1533 1533 1534 1534 1534 1534 1535 1535 1534 1534 1534 1534 1534 1534 1534 1534 1534
1521 1522 1524 1525 1526 1527 1528 1528 1529 1529 1530 1530 1531 1531 1532 1532 1533 1533 1533 1532 1532 1532 1532 1533 1533 1533 1533 1533 1533 1533 1533 1533 1534 1534 1534 1533 1533 1534 1533 1534 1534 1534 1534